WX4SKY Weather Reports


Display with metric or nautical units.
time (UTC)temp
F
wind
direction
speed
MPH
gust
MPH
rain 1hr
in
rain 24hr
in
rain mn
in
humidity
%
barometer
mb
20260902123112 71 0 0.0 0.0 0.00 0.00 0.00 96 1021.4
20260902121601 71 0 0.0 0.0 0.00 0.00 0.00 96 1021.3
20260902120105 70 0 0.0 0.0 0.00 0.00 0.00 95 1021.1
20260902114600 70 0 0.0 0.0 0.00 0.00 0.00 95 1021.0
20260902113058 70 0 0.0 0.0 0.00 0.00 0.00 95 1020.9
20260902111604 70 0 0.0 0.0 0.00 0.00 0.00 95 1020.9
20260902110106 70 0 0.0 0.0 0.00 0.00 0.00 95 1020.8
20260902104616 70 0 0.0 0.0 0.00 0.00 0.00 95 1020.6
20260902103112 70 0 0.0 0.0 0.00 0.00 0.00 95 1020.6
20260902101609 71 0 0.0 0.0 0.00 0.00 0.00 95 1020.5
20260902100100 71 0 0.0 0.0 0.00 0.00 0.00 95 1020.5
20260902094601 71 0 0.0 0.0 0.00 0.00 0.00 95 1020.4
20260902093100 71 0 0.0 0.0 0.00 0.00 0.00 95 1020.1
20260902091604 71 0 0.0 0.0 0.00 0.00 0.00 95 1019.9
20260902090058 71 0 0.0 0.0 0.00 0.00 0.00 95 1019.9
20260902084604 71 0 0.0 0.0 0.00 0.00 0.00 95 1019.8
20260902083104 71 0 0.0 0.0 0.00 0.00 0.00 94 1019.8
20260902081603 72 0 0.0 0.0 0.00 0.00 0.00 95 1019.8
20260902080105 72 0 0.0 0.0 0.00 0.00 0.00 94 1019.8
20260902074604 72 0 0.0 0.0 0.00 0.00 0.00 94 1019.7
20260902073108 72 0 0.0 0.0 0.00 0.00 0.00 94 1019.7
20260902071604 72 0 0.0 0.0 0.00 0.00 0.00 94 1019.7
20260902070107 72 0 0.0 0.0 0.00 0.00 0.00 94 1019.8
20260902064607 73 0 0.0 0.0 0.00 0.00 0.00 94 1019.9
20260902063113 73 0 0.0 0.0 0.00 0.00 0.00 94 1019.9
20260902061626 73 0 0.0 0.0 0.00 0.00 0.00 94 1019.9
20260902060111 73 0 0.0 0.0 0.00 0.00 0.00 93 1019.9
20260902054603 73 0 0.0 0.0 0.00 0.00 0.00 93 1020.0
20260902053107 73 0 0.0 0.0 0.00 0.00 0.00 93 1020.1
20260902051613 74 0 0.0 0.0 0.00 0.00 0.00 93 1020.1
20260902050112 74 0 0.0 0.0 0.00 0.00 0.00 93 1020.0
20260902044633 74 0 0.0 0.0 0.00 0.00 0.00 93 1020.1
20260902043104 74 0 0.0 0.0 0.00 0.00 0.00 92 1019.9
20260902041558 74 0 0.0 0.0 0.00 0.00 0.00 92 1020.0
20260902040104 74 0 0.0 0.0 0.00 0.00 0.00 92 1020.0
20260902034604 74 0 0.0 0.0 0.00 0.00 0.00 91 1020.1
20260902033104 75 0 0.0 0.0 0.00 0.00 0.00 91 1020.1
20260902031619 75 0 0.0 0.0 0.00 0.00 0.00 90 1020.3
20260902030107 75 0 0.0 0.0 0.00 0.00 0.00 91 1020.2
20260902024605 75 0 0.0 0.0 0.00 0.00 0.00 90 1020.2
20260902023106 75 0 0.0 0.0 0.00 0.00 0.00 89 1020.0
20260902021600 76 0 0.0 0.0 0.00 0.00 0.00 89 1020.0
20260902014603 77 0 0.0 0.0 0.00 0.00 0.00 88 1019.7
20260902013112 78 0 0.0 0.0 0.00 0.00 0.00 87 1019.3
20260902011559 78 0 0.0 0.0 0.00 0.00 0.00 85 1019.2
20260902010106 79 0 0.0 0.0 0.00 0.00 0.00 83 1019.3
20260902004606 80 0 0.0 0.0 0.00 0.00 0.00 82 1019.0
20260902003106 80 0 0.0 0.0 0.00 0.00 0.00 82 1019.0
20260902001606 82 0 0.0 0.0 0.00 0.00 0.00 80 1019.0
20260902000104 83 0 0.0 0.0 0.00 0.00 0.00 75 1019.2
20260901234609 84 0 0.0 0.0 0.00 0.00 0.00 73 1019.1
20260901233105 86 0 0.0 0.0 0.00 0.00 0.00 72 1019.2
20260901231616 87 0 0.0 0.0 0.00 0.00 0.00 69 1019.3
20260901230110 88 0 0.0 0.0 0.00 0.00 0.00 65 1019.3
20260901224600 89 0 0.0 0.0 0.00 0.00 0.00 64 1019.2
20260901223058 91 0 0.0 0.0 0.00 0.00 0.00 60 1019.0
20260901221612 93 0 0.0 0.0 0.00 0.00 0.00 56 1018.9
20260901220108 92 0 0.0 2.0 0.00 0.00 0.00 59 1019.0
20260901214601 93 98 0.0 2.0 0.00 0.00 0.00 56 1019.2
20260901213102 93 0 0.0 3.0 0.00 0.00 0.00 55 1019.3
20260901211604 94 39 1.0 5.0 0.00 0.00 0.00 52 1019.4
20260901204607 94 102 1.0 2.0 0.00 0.00 0.00 54 1019.6
20260901203100 95 0 1.0 2.0 0.00 0.00 0.00 48 1019.6
20260901201603 94 0 0.0 2.0 0.00 0.00 0.00 50 1019.8
20260901200107 94 130 1.0 3.0 0.00 0.00 0.00 55 1019.7
20260901194607 93 135 1.0 6.0 0.00 0.00 0.00 51 1019.8
20260901193101 93 0 1.0 2.0 0.00 0.00 0.00 53 1020.1
20260901191604 89 94 0.0 1.0 0.00 0.00 0.00 63 1020.3
20260901190106 89 0 0.0 1.0 0.00 0.00 0.00 62 1020.5
20260901184607 91 0 0.0 4.0 0.00 0.00 0.00 59 1020.6
20260901183123 91 108 0.0 2.0 0.00 0.00 0.00 53 1020.6
20260901181607 91 103 0.0 3.0 0.00 0.00 0.00 55 1020.7
20260901180108 89 72 2.0 4.0 0.00 0.00 0.00 60 1020.9
20260901174607 89 101 0.0 1.0 0.00 0.00 0.00 66 1021.1
20260901173151 90 127 1.0 4.0 0.00 0.00 0.00 64 1021.2
20260901171605 90 124 1.0 4.0 0.00 0.00 0.00 62 1021.2
20260901170108 88 0 0.0 2.0 0.00 0.00 0.00 63 1021.5
20260901164610 87 0 1.0 5.0 0.00 0.00 0.00 64 1021.8
20260901163118 89 94 1.0 6.0 0.00 0.00 0.00 66 1022.0
20260901161609 87 115 0.0 0.0 0.00 0.00 0.00 67 1022.1
20260901160106 86 0 0.0 0.0 0.00 0.00 0.00 67 1022.2
20260901154606 86 0 0.0 2.0 0.00 0.00 0.00 71 1022.2
20260901153105 86 0 0.0 2.0 0.00 0.00 0.00 72 1022.3
20260901151612 85 0 0.0 1.0 0.00 0.00 0.00 72 1022.3
20260901150107 84 0 0.0 2.0 0.00 0.00 0.00 77 1022.4
20260901144607 83 0 0.0 1.0 0.00 0.00 0.00 81 1022.4
20260901143108 81 0 0.0 1.0 0.00 0.00 0.00 85 1022.4
20260901141617 80 0 0.0 4.0 0.00 0.00 0.00 87 1022.4
20260901140106 77 0 0.0 1.0 0.00 0.00 0.00 90 1022.3
20260901134606 75 0 0.0 1.0 0.00 0.00 0.00 95 1022.3
20260901133105 73 0 0.0 0.0 0.00 0.00 0.00 96 1022.3
20260901131605 72 0 0.0 0.0 0.00 0.00 0.00 96 1022.2
20260901130110 71 0 0.0 0.0 0.00 0.00 0.00 96 1022.2
20260901124601 70 0 0.0 0.0 0.00 0.00 0.00 96 1022.0